GSAT0212 (PRN E03)

Last updated on Feb. 20, 2020, 4:41 a.m. UTC

1 41860U 16069B   20050.21887534 -.00000033  00000-0  00000-0 0  9993
2 41860  54.6314 165.1522 0002614 329.3540  30.5915  1.70473721 20271
UTC
Height (km)
Latitude
Longitude
Inclination
Orbital Period
UTC large
Height (km)
Speed (km/s)
/
Latitude / Longitude
Inclination (degrees)
Orbital Period (minutes)
Azimuth
Elevation
Range (km)
Doppler Factor
iOS Compass Heading
iOS Angle

Next 30 passes for location: Hong Kong

Rise time Rise Azimuth (degrees) Set time Set Azimuth (degrees) Duration Max altitude (degrees)

No matching passes for this satellites